TimeEST,TemperatureF,Dew PointF,Humidity,Sea Level PressureIn,VisibilityMPH,Wind Direction,Wind SpeedMPH,Gust SpeedMPH,PrecipitationIn,Events,Conditions,WindDirDegrees,DateUTC
12:53 AM,21.9,9.0,58,30.39,10.0,West,5.8,-,N/A,,Overcast,260,2013-01-18 05:53:00
1:53 AM,21.9,12.0,66,30.41,10.0,SW,4.6,-,N/A,,Overcast,230,2013-01-18 06:53:00
2:53 AM,23.0,12.9,65,30.43,10.0,WSW,5.8,-,N/A,,Overcast,240,2013-01-18 07:53:00
3:53 AM,24.1,15.1,69,30.45,10.0,WSW,6.9,-,N/A,,Overcast,250,2013-01-18 08:53:00
4:53 AM,24.1,16.0,71,30.44,10.0,WSW,4.6,-,N/A,,Overcast,240,2013-01-18 09:53:00
5:53 AM,23.0,16.0,74,30.45,10.0,SW,3.5,-,N/A,,Overcast,220,2013-01-18 10:53:00
6:53 AM,23.0,17.1,78,30.45,10.0,SSW,3.5,-,N/A,,Overcast,210,2013-01-18 11:53:00
7:53 AM,21.9,17.1,82,30.47,10.0,SSW,4.6,-,N/A,,Partly Cloudy,210,2013-01-18 12:53:00
8:53 AM,23.0,17.1,78,30.48,10.0,SW,9.2,-,N/A,,Partly Cloudy,220,2013-01-18 13:53:00
9:53 AM,26.1,16.0,66,30.48,10.0,SW,10.4,-,N/A,,Overcast,230,2013-01-18 14:53:00
10:53 AM,28.0,17.1,63,30.47,10.0,SSW,11.5,-,N/A,,Scattered Clouds,200,2013-01-18 15:53:00
11:53 AM,30.0,17.1,59,30.43,10.0,SSW,15.0,-,N/A,,Overcast,210,2013-01-18 16:53:00
12:53 PM,30.9,17.1,57,30.38,10.0,SW,16.1,-,N/A,,Overcast,220,2013-01-18 17:53:00
1:53 PM,30.9,18.0,59,30.33,10.0,SSW,17.3,24.2,N/A,,Clear,210,2013-01-18 18:53:00
2:53 PM,33.1,19.0,56,30.31,10.0,SSW,15.0,-,N/A,,Partly Cloudy,200,2013-01-18 19:53:00
3:53 PM,34.0,19.0,54,30.26,10.0,SSW,15.0,25.3,N/A,,Clear,200,2013-01-18 20:53:00
4:53 PM,35.1,19.9,54,30.23,10.0,SSW,18.4,25.3,N/A,,Clear,210,2013-01-18 21:53:00
5:53 PM,34.0,19.9,56,30.21,10.0,SSW,17.3,-,N/A,,Clear,200,2013-01-18 22:53:00
6:53 PM,34.0,19.0,54,30.18,10.0,South,16.1,25.3,N/A,,Scattered Clouds,190,2013-01-18 23:53:00
7:53 PM,34.0,19.0,54,30.14,10.0,SSW,19.6,29.9,N/A,,Clear,200,2013-01-19 00:53:00
8:53 PM,34.0,19.9,56,30.11,10.0,South,20.7,33.4,N/A,,Clear,190,2013-01-19 01:53:00
9:53 PM,36.0,19.9,52,30.09,10.0,SSW,20.7,31.1,N/A,,Clear,200,2013-01-19 02:53:00
10:53 PM,36.0,21.0,55,30.09,10.0,SW,16.1,25.3,N/A,,Clear,220,2013-01-19 03:53:00
11:53 PM,36.0,23.0,59,30.07,10.0,SW,18.4,26.5,N/A,,Clear,220,2013-01-19 04:53:00